This is the latest recevied weather packets stored in our database for station/object WC4PEM-11. If no packets are shown the sender has not sent any weather packets the latest 10 day(s).
| Time | Temp. | Humidity | Pressure | Rain* | Wind** | Luminosity | Snow |
|---|---|---|---|---|---|---|---|
| 1788032291 | 36.11° C | 49% | 1016.2 hPa | 0 mm | - | - | - |
| 1788031991 | 35.56° C | 51% | 1016.4 hPa | 0 mm | - | - | - |
| 1788031691 | 35.56° C | 52% | 1016.5 hPa | 0 mm | - | - | - |
| 1788031638 | 36.11° C | 51% | 1016.6 hPa | 0 mm | - | - | - |
| 1788031391 | 36.11° C | 51% | 1016.6 hPa | 0 mm | - | - | - |
| 1788031315 | 36.11° C | 52% | 1016.5 hPa | 0 mm | - | - | - |
| 1788031091 | 36.11° C | 52% | 1016.5 hPa | 0 mm | - | - | - |
| 1788030791 | 36.11° C | 52% | 1016.5 hPa | 0 mm | - | - | - |
| 1788030650 | 35.56° C | 51% | 1016.5 hPa | 0 mm | - | - | - |
| 1788030491 | 35.56° C | 51% | 1016.5 hPa | 0 mm | - | - | - |
| 1788030486 | 35.56° C | 53% | 1016.6 hPa | 0 mm | - | - | - |
| 1788030191 | 35.56° C | 53% | 1016.6 hPa | 0 mm | - | - | - |
| 1788029891 | 35° C | 55% | 1016.6 hPa | 0 mm | - | - | - |
| 1788029591 | 35° C | 55% | 1016.5 hPa | 0 mm | - | - | - |
| 1788029291 | 35° C | 53% | 1016.5 hPa | 0 mm | - | - | - |
| 1788028991 | 34.44° C | 54% | 1016.5 hPa | 0 mm | - | - | - |
| 1788028847 | 34.44° C | 51% | 1016.5 hPa | 0 mm | - | - | - |
| 1788028691 | 34.44° C | 51% | 1016.5 hPa | 0 mm | - | - | - |
| 1788028391 | 35° C | 51% | 1016.5 hPa | 0 mm | - | - | - |
| 1788028091 | 35° C | 54% | 1016.4 hPa | 0 mm | - | - | - |
| 1788027791 | 35° C | 51% | 1016.6 hPa | 0 mm | - | - | - |
| 1788027491 | 35° C | 52% | 1016.7 hPa | 0 mm | - | - | - |
| 1788027396 | 34.44° C | 55% | 1017 hPa | 0 mm | - | - | - |
| 1788027191 | 34.44° C | 55% | 1017 hPa | 0 mm | - | - | - |
| 1788026891 | 34.44° C | 54% | 1017.1 hPa | 0 mm | - | - | - |
* Rain latest hour (hover to see other rain measurements)
** Current wind speed in m/s (hover to see current wind gust speed)